Погода в Выборге

Хотите узнать прогноз погоды в Выборге? Тогда Вам сюда: Погода в Выборге

Поиск расширенной информации на нашем сайте:

Полезная информация:

Новости сайта



02.01.2020
Опубликован Долгосрочный прогноз погоды по городам России и ближнего зарубежья на январь 2020 года.
Карты: Прогноз на январь и февраль 2020 года, Сравнение прогнозируемой аномалии приземной температуры воздуха на январь 2020 года по разным моделям.




Погода в Выборге - сегодня

Время (UTC), дата Ветер
(°,м/с) 
Видим.   Явления Облачность Т
(°С)
Тd
(°С)
f(%) Тe
(°С)
Pmin
(гПа)
dP
(гПа)
Po
(мм)
O2
(г/м3)
Тmin Tmax R s Состояние
почвы
21 22.10.20 060 (СВ) 4000 м  слаб. дождь{морось}  10/10 180 м 
[Frnb|Ns]
+7.7 +7.3 97 +8  991.7  -1.5  743  290           
00 23.10.20 280 (З) 10 км  {дождь, морось}  10/10 240 м 
[St]
+7 +6.6 97 +6  995.1  3.4  745  292           
03 23.10.20 230 (ЮЗ) 10 км    10/8 540 м средняя 
[Sc|Ac As]
+7.6 +7.2 97 +7  995.5  0.4  745  291  +6.8       
06 23.10.20 140 (ЮВ) 10 км  слаб. дождь  10/10 330 м 
[Ns]
+8.2 +7.8 97 +8  993.1  -2.4  744  290  +6.9       
09 23.10.20 240 (ЮЗ) 20000 м  слаб. дождь  10/10 450 м 
[Ns]
+10.3 +9.3 94 +9  992.2  -0.8  743  287           
12 23.10.20 230 (ЮЗ) 6{10}  20000 м  {дождь}  10/10 700 м кучево-дожд. 
[Cb cap]
+10.3 +8.9 91 +9  991.6  -0.6  743  287           
15 23.10.20 320 (СЗ) 4{11}  20000 м    10/10 400 м кучево-дожд. 
[Cb cap]
+7.1 +5.2 88 +6  994.6  2.9  745  292         
18 23.10.20 320 (СЗ) 3{11}  10 км    4/0 средняя 
[Ac trans]
+3.8 +1.3 84 +3  998.6  748  297    +10.9     
21 23.10.20 300 (СЗ) 10 км    3/0 средняя 
[Ac trans]
+2.3 -0.3 83 +2  1001.7  3.1  750  300           
00 24.10.20 270 (З) 10 км    4/0 средняя 
[Ac trans]
+0.5 -1.8 85 1003.6  1.9  752  302           
03 24.10.20 240 (ЮЗ) 10 км    ясно 
-0.6 -1.7 92 -1  1004.3  0.7  752  304  -0.8         
06 24.10.20 270 (З) 20000 м    ясно 
-0.3 -1.4 92 -1  1004.6  0.3  752  304  -0.9         
09 24.10.20 270 (З) 20000 м    8/8 1260 м 
[Sc]
+2.3 -0.4 82 +1  1005.2  0.6  753  301           
12 24.10.20 270 (З) 20000 м    8/6 1320 м средняя, верхняя 
[Sc|Ac trans|Cc]
+5.7 -1.4 60 +4  1005.6  0.4  753  297           
15 24.10.20 240 (ЮЗ) 20000 м    4/0 средняя, верхняя 
[Ac und|Ci fib]
+2.7 -1.6 73 +2  1005.7  0.1  753  301           
18 24.10.20 тихо ()   10 км    8/6 960 м средняя 
[Sc|Ac As]
+0.9 -1.9 82 +1  1005.6  -0.1  753  303    +5.8       
21 24.10.20 310 (СЗ) 10 км    8/8 660 м 
[Sc]
+1.9 +0.4 90 +3  1006.4  0.8  754  301           
00 25.10.20 100 (В) 10 км    10/10 900 м 
[Sc]
+2.5 +0.7 88 +3  1006.7  0.3  754  301           
03 25.10.20 020 (С) 10 км    10/6 600 м средняя 
[Sc|Ac und]
+2.3 +0.4 87 +3  1007.7  755  301  +0.6         
06 25.10.20 320 (СЗ) 20000 м    4/0 средняя 
[Ac As]
+0.6 -0.4 93 1010  2.3  756  304  +0.5         
09 25.10.20 050 (СВ) 20000 м    ясно 
+4.4 +0.9 78 +5  1011.3  1.3  757  300           
12 25.10.20 170 (Ю) 20000 м    3/0 средняя 
[Ac trans]
+6.1 +0.3 66 +7  1013  1.7  759  299           
15 25.10.20 тихо ()   20000 м    10/10 660 м 
[Sc]
+4.8 +1.4 79 +5  1014.2  1.2  759  301           
18 25.10.20 090 (В) 20000 м    8/8 930 м 
[Sc]
+4.7 +1.4 79 +4  1014.6  0.4  760  301    +6.5       
21 25.10.20 150 (ЮВ) 10 км    10/10 1000 м 
[Sc]
+5.8 +3.8 87 +3  1014.3  -0.3  760  299           
Время (UTC), дата Ветер
(°,м/с) 
Видим.   Явления Облачность Т
(°С)
Тd
(°С)
f(%) Тe
(°С)
Pmin
(гПа)
dP
(гПа)
Po
(мм)
O2
(г/м3)
Тmin Tmax R s Состояние
почвы

Для получения пояснительной информации подведите курсор к названию столбца.

ПОГОДА в Выборге - архив

Всё, что Вы хотите узнать о погоде в Выборге - удобно и подробно!

Выберите нужную дату (начиная с 1 января 2019* года) и нажмите кнопку "Найти".
Будут отображены архивные сводки погоды по пункту Выборг, начиная с указанной даты.


Отображать данные в формате CSV (для использования в таблицах Excel)


Внимание! Наш архив погоды предназначен исключительно для личного некоммерческого использования в познавательных целях. Если Вам необходимы официальные справки о состоянии погоды (для производственных, юридических, коммерческих и т.п. целей), обращайтесь в органы Росгидромета.

*Примечание: данная дата относится к архиву по метеостанциям СССР (Россия, СНГ, Балтия).
Архив по метеостанциям Зарубежной Европы и Азии (кроме Китая) хранится 10 дней, по другим регионам земного шара (Китай, Африка, Америка, Австралия, Океания) - 1 день.

Выборг - район местоположения метеостанции


Название, широта, долгота, высота метеостанции:
Выборг 60.7°ш. 28.7°д. 13 м над ур. моря [Российская Федерация]

Дополнительная информация

В oтличие oт бoльшинства пoгoдных сайтoв мы публикуем пoдрoбную метеoинфoрмацию в детальнoм прoфессиoнальнoм фoрмате.

Характеристики температуры и влажнoсти вoздуха измеряются на высoте 2 м в тени вдали oт зданий и деревьев.
Скoрoсть ветра измеряется на высoте 10 м (на урoвне рoста челoвека скoрoсть ветра ниже в 1.5-2 раза). Если метеoстанция нахoдится в гoрoде или в лесу, тo скoрoсть ветра занижена на 2-4 м/с пo сравнению с oткрытым местoм. Скoрoсть ветра над акватoриями крупных рек и oзёр, а также на вершинах хoлмoв на 2-5 м/с выше, чем в oбычных услoвиях.
Атмoсфернoе давление в разных тoчках местнoсти мoжет значительнo oтличаться oт давления на метеoстанции, в зависимoсти oт услoвий рельефа (при пoдъёме на 10 м давление пoнижается примернo на 1 мм рт.ст.).